Time,TemperatureF,DewpointF,PressureIn,WindDirection,WindDirectionDegrees,WindSpeedMPH,WindSpeedGustMPH,Humidity,HourlyPrecipIn,Conditions,Clouds,dailyrainin,SoftwareType,DateUTC
2016-02-09 00:05:00,62.0,56.0,-100.00,SW,219,8.0,14.0,82,-99.99,,,-99.99,,2016-02-09 05:05:00,
2016-02-09 00:44:00,62.0,57.0,-100.00,SW,223,8.0,13.0,84,-99.99,,,-99.99,,2016-02-09 05:44:00,
2016-02-09 00:56:00,62.0,57.0,-100.00,SW,223,8.0,13.0,84,-99.99,,,-99.99,,2016-02-09 05:56:00,
2016-02-09 01:04:00,62.0,57.0,-100.00,SW,223,8.0,13.0,84,-99.99,,,-99.99,,2016-02-09 06:04:00,
2016-02-09 01:13:00,62.0,57.0,-100.00,SW,223,8.0,13.0,84,-99.99,,,-99.99,,2016-02-09 06:13:00,
2016-02-09 01:46:00,62.0,57.0,-100.00,SW,222,9.0,14.0,84,-99.99,,,-99.99,,2016-02-09 06:46:00,
2016-02-09 01:58:00,62.0,57.0,-100.00,SW,222,9.0,14.0,84,-99.99,,,-99.99,,2016-02-09 06:58:00,
2016-02-09 02:13:00,62.0,57.0,-100.00,SW,222,9.0,-999.0,84,-99.99,,,-99.99,,2016-02-09 07:13:00,
2016-02-09 02:45:00,62.0,58.0,-100.00,SW,227,8.0,13.0,86,-99.99,,,-99.99,,2016-02-09 07:45:00,
2016-02-09 03:04:00,62.0,58.0,-100.00,SW,227,8.0,13.0,86,-99.99,,,-99.99,,2016-02-09 08:04:00,
2016-02-09 03:13:00,62.0,58.0,-100.00,SW,227,8.0,13.0,86,-99.99,,,-99.99,,2016-02-09 08:13:00,
2016-02-09 03:44:00,63.0,59.0,-100.00,WSW,254,8.0,12.0,88,-99.99,,,-99.99,,2016-02-09 08:44:00,
2016-02-09 03:55:00,63.0,59.0,-100.00,WSW,254,8.0,12.0,88,-99.99,,,-99.99,,2016-02-09 08:55:00,
2016-02-09 04:04:00,63.0,59.0,-100.00,WSW,254,8.0,12.0,88,-99.99,,,-99.99,,2016-02-09 09:04:00,
2016-02-09 04:14:00,63.0,59.0,-100.00,WSW,254,8.0,12.0,88,-99.99,,,-99.99,,2016-02-09 09:14:00,
2016-02-09 04:44:00,64.0,60.0,-100.00,WSW,254,7.0,12.0,87,-99.99,,,-99.99,,2016-02-09 09:44:00,
2016-02-09 05:04:00,64.0,60.0,-100.00,WSW,254,7.0,12.0,87,-99.99,,,-99.99,,2016-02-09 10:04:00,
2016-02-09 05:13:00,64.0,60.0,-100.00,WSW,254,7.0,12.0,87,-99.99,,,-99.99,,2016-02-09 10:13:00,
2016-02-09 05:44:00,65.0,53.0,-100.00,WNW,302,14.0,24.0,66,-99.99,,,-99.99,,2016-02-09 10:44:00,
2016-02-09 05:55:00,65.0,53.0,-100.00,WNW,302,14.0,24.0,66,-99.99,,,-99.99,,2016-02-09 10:55:00,
2016-02-09 06:04:00,65.0,53.0,-100.00,WNW,302,14.0,24.0,66,-99.99,,,-99.99,,2016-02-09 11:04:00,